SM0PQB-13 Weather Reports


time (UTC)temp
F
wind
direction
speed
knots
gust
knots
rain 1hr
in
rain 24hr
in
rain mn
in
humidity
%
barometer
mb
20260507102912 82 0.0 0.0 0.00 0.00 0.00 26 1013.5
20260507101912 79 0.0 0.0 0.00 0.00 0.00 29 1013.5
20260507100912 77 0.0 0.0 0.00 0.00 0.00 31 1013.4
20260507095912 77 0.0 0.0 0.00 0.00 0.00 32 1013.4
20260507094912 76 0.0 0.0 0.00 0.00 0.00 32 1013.4
20260507093912 76 0.0 0.0 0.00 0.00 0.00 32 1013.5
20260507092912 76 0.0 0.0 0.00 0.00 0.00 32 1013.4
20260507091912 75 0.0 0.0 0.00 0.00 0.00 33 1013.3
20260507090912 75 0.0 0.0 0.00 0.00 0.00 32 1013.4
20260507085912 75 0.0 0.0 0.00 0.00 0.00 32 1013.4
20260507084912 75 0.0 0.0 0.00 0.00 0.00 33 1013.3
20260507083911 75 0.0 0.0 0.00 0.00 0.00 33 1013.4
20260507082913 75 0.0 0.0 0.00 0.00 0.00 33 1013.4
20260507081913 75 0.0 0.0 0.00 0.00 0.00 33 1013.3
20260507080913 75 0.0 0.0 0.00 0.00 0.00 33 1013.3
20260507075912 75 0.0 0.0 0.00 0.00 0.00 34 1013.3
20260507074913 75 0.0 0.0 0.00 0.00 0.00 34 1013.3
20260507073912 75 0.0 0.0 0.00 0.00 0.00 34 1013.3
20260507072912 75 0.0 0.0 0.00 0.00 0.00 35 1013.2
20260507071912 75 0.0 0.0 0.00 0.00 0.00 35 1013.3
20260507070911 74 0.0 0.0 0.00 0.00 0.00 34 1013.2
20260507065913 75 0.0 0.0 0.00 0.00 0.00 33 1013.3
20260507064912 75 0.0 0.0 0.00 0.00 0.00 33 1013.2
20260507063912 74 0.0 0.0 0.00 0.00 0.00 33 1013.2
20260507062912 74 0.0 0.0 0.00 0.00 0.00 34 1013.2
20260507061912 74 0.0 0.0 0.00 0.00 0.00 34 1013.2
20260507060911 74 0.0 0.0 0.00 0.00 0.00 34 1013.1
20260507055912 74 0.0 0.0 0.00 0.00 0.00 35 1013.0
20260507054913 73 0.0 0.0 0.00 0.00 0.00 36 1013.0
20260507053913 73 0.0 0.0 0.00 0.00 0.00 36 1013.0
20260507052912 73 0.0 0.0 0.00 0.00 0.00 36 1012.9
20260507051911 73 0.0 0.0 0.00 0.00 0.00 36 1012.8
20260507050912 73 0.0 0.0 0.00 0.00 0.00 36 1012.8
20260507045912 73 0.0 0.0 0.00 0.00 0.00 36 1012.8
20260507044912 73 0.0 0.0 0.00 0.00 0.00 36 1012.8
20260507043912 70 0.0 0.0 0.00 0.00 0.00 36 1010.1
20260507042912 73 0.0 0.0 0.00 0.00 0.00 36 1012.7
20260507041913 73 0.0 0.0 0.00 0.00 0.00 35 1012.7
20260507040912 72 0.0 0.0 0.00 0.00 0.00 35 1012.7
20260507035912 73 0.0 0.0 0.00 0.00 0.00 35 1012.8
20260507034912 73 0.0 0.0 0.00 0.00 0.00 36 1012.6
20260507033912 73 0.0 0.0 0.00 0.00 0.00 36 1012.6
20260507032912 73 0.0 0.0 0.00 0.00 0.00 36 1012.5
20260507031912 72 0.0 0.0 0.00 0.00 0.00 36 1012.5
20260507030912 73 0.0 0.0 0.00 0.00 0.00 37 1012.5
20260507025912 73 0.0 0.0 0.00 0.00 0.00 37 1012.5
20260507024912 73 0.0 0.0 0.00 0.00 0.00 37 1012.4
20260507023912 73 0.0 0.0 0.00 0.00 0.00 37 1012.4
20260507022912 73 0.0 0.0 0.00 0.00 0.00 37 1012.3
20260507021915 73 0.0 0.0 0.00 0.00 0.00 38 1012.3
20260507020913 73 0.0 0.0 0.00 0.00 0.00 37 1012.3
20260507015912 73 0.0 0.0 0.00 0.00 0.00 37 1012.3
20260507014912 73 0.0 0.0 0.00 0.00 0.00 37 1012.3
20260507013912 73 0.0 0.0 0.00 0.00 0.00 37 1012.3
20260507012912 73 0.0 0.0 0.00 0.00 0.00 37 1012.3
20260507011913 73 0.0 0.0 0.00 0.00 0.00 37 1012.2
20260507010912 74 0.0 0.0 0.00 0.00 0.00 36 1012.1
20260507005911 72 0.0 0.0 0.00 0.00 0.00 35 1010.8
20260507004912 74 0.0 0.0 0.00 0.00 0.00 34 1012.2
20260507003913 74 0.0 0.0 0.00 0.00 0.00 33 1012.3
20260507002912 74 0.0 0.0 0.00 0.00 0.00 32 1012.2
20260507001913 74 0.0 0.0 0.00 0.00 0.00 32 1012.1
20260507000912 74 0.0 0.0 0.00 0.00 0.00 32 1011.9
20260506235912 74 0.0 0.0 0.00 0.00 0.00 32 1011.9
20260506234913 74 0.0 0.0 0.00 0.00 0.00 32 1011.8
20260506233912 74 0.0 0.0 0.00 0.00 0.00 32 1011.8
20260506232912 74 0.0 0.0 0.00 0.00 0.00 32 1011.7
20260506231912 74 0.0 0.0 0.00 0.00 0.00 32 1011.7
20260506230913 74 0.0 0.0 0.00 0.00 0.00 32 1011.8
20260506225912 74 0.0 0.0 0.00 0.00 0.00 32 1011.7
20260506224912 75 0.0 0.0 0.00 0.00 0.00 32 1011.7
20260506223915 74 0.0 0.0 0.00 0.00 0.00 32 1011.8
20260506222912 75 0.0 0.0 0.00 0.00 0.00 32 1011.7
20260506221913 75 0.0 0.0 0.00 0.00 0.00 32 1011.7
20260506220912 74 0.0 0.0 0.00 0.00 0.00 32 1011.7
20260506215911 75 0.0 0.0 0.00 0.00 0.00 32 1011.7
20260506214912 75 0.0 0.0 0.00 0.00 0.00 32 1011.6
20260506213912 75 0.0 0.0 0.00 0.00 0.00 32 1011.6
20260506212912 75 0.0 0.0 0.00 0.00 0.00 32 1011.5
20260506211912 75 0.0 0.0 0.00 0.00 0.00 33 1011.5
20260506210912 75 0.0 0.0 0.00 0.00 0.00 33 1011.6
20260506205912 75 0.0 0.0 0.00 0.00 0.00 33 1011.6
20260506204912 75 0.0 0.0 0.00 0.00 0.00 33 1011.6
20260506203912 75 0.0 0.0 0.00 0.00 0.00 33 1011.6
20260506202912 75 0.0 0.0 0.00 0.00 0.00 33 1011.5
20260506201912 75 0.0 0.0 0.00 0.00 0.00 35 1011.6
20260506200912 75 0.0 0.0 0.00 0.00 0.00 35 1011.6
20260506195912 75 0.0 0.0 0.00 0.00 0.00 35 1011.6
20260506194911 75 0.0 0.0 0.00 0.00 0.00 34 1011.6
20260506193912 75 0.0 0.0 0.00 0.00 0.00 34 1011.5
20260506192912 75 0.0 0.0 0.00 0.00 0.00 33 1011.6
20260506191912 75 0.0 0.0 0.00 0.00 0.00 33 1011.6
20260506185912 75 0.0 0.0 0.00 0.00 0.00 34 1011.6
20260506184913 75 0.0 0.0 0.00 0.00 0.00 34 1011.6
20260506183913 75 0.0 0.0 0.00 0.00 0.00 33 1011.5
20260506182913 74 0.0 0.0 0.00 0.00 0.00 32 1010.9
20260506181912 74 0.0 0.0 0.00 0.00 0.00 32 1011.6
20260506180912 74 0.0 0.0 0.00 0.00 0.00 32 1011.4
20260506175912 74 0.0 0.0 0.00 0.00 0.00 31 1011.3
20260506174913 75 0.0 0.0 0.00 0.00 0.00 30 1011.4
20260506173912 75 0.0 0.0 0.00 0.00 0.00 30 1011.3
20260506172912 75 0.0 0.0 0.00 0.00 0.00 30 1011.2
20260506171912 75 0.0 0.0 0.00 0.00 0.00 30 1011.3
20260506170912 75 0.0 0.0 0.00 0.00 0.00 30 1011.2
20260506165912 75 0.0 0.0 0.00 0.00 0.00 30 1011.2
20260506164912 75 0.0 0.0 0.00 0.00 0.00 30 1010.7
20260506162911 76 0.0 0.0 0.00 0.00 0.00 30 1011.0
20260506160912 76 0.0 0.0 0.00 0.00 0.00 29 1011.0
20260506155913 77 0.0 0.0 0.00 0.00 0.00 29 1011.0
20260506154912 77 0.0 0.0 0.00 0.00 0.00 29 1010.9
20260506153912 77 0.0 0.0 0.00 0.00 0.00 29 1010.9
20260506152912 78 0.0 0.0 0.00 0.00 0.00 28 1010.9
20260506151913 78 0.0 0.0 0.00 0.00 0.00 28 1010.9
20260506150912 78 0.0 0.0 0.00 0.00 0.00 29 1010.8
20260506145912 78 0.0 0.0 0.00 0.00 0.00 29 1011.1
20260506144912 78 0.0 0.0 0.00 0.00 0.00 28 1010.9
20260506143912 79 0.0 0.0 0.00 0.00 0.00 28 1011.0
20260506142912 79 0.0 0.0 0.00 0.00 0.00 28 1010.9
20260506141912 81 0.0 0.0 0.00 0.00 0.00 27 1011.0
20260506140912 81 0.0 0.0 0.00 0.00 0.00 27 1011.0
20260506135911 81 0.0 0.0 0.00 0.00 0.00 26 1011.0
20260506134912 79 0.0 0.0 0.00 0.00 0.00 26 1009.4
20260506133912 82 0.0 0.0 0.00 0.00 0.00 26 1010.2
20260506132912 84 0.0 0.0 0.00 0.00 0.00 24 1010.8
20260506131913 85 0.0 0.0 0.00 0.00 0.00 24 1010.7
20260506130912 85 0.0 0.0 0.00 0.00 0.00 24 1010.8
20260506125912 86 0.0 0.0 0.00 0.00 0.00 24 1010.8
20260506124912 94 0.0 0.0 0.00 0.00 0.00 19 1011.0
20260506123912 98 0.0 0.0 0.00 0.00 0.00 17 1011.0
20260506122913 98 0.0 0.0 0.00 0.00 0.00 17 1011.0
20260506121912 97 0.0 0.0 0.00 0.00 0.00 17 1011.2
20260506120913 93 0.0 0.0 0.00 0.00 0.00 19 1011.2
20260506115914 93 0.0 0.0 0.00 0.00 0.00 19 1011.2
20260506114912 92 0.0 0.0 0.00 0.00 0.00 19 1011.4
20260506113913 90 0.0 0.0 0.00 0.00 0.00 20 1010.6
20260506112912 90 0.0 0.0 0.00 0.00 0.00 21 1011.3
20260506111912 89 0.0 0.0 0.00 0.00 0.00 22 1011.5
20260506110911 87 0.0 0.0 0.00 0.00 0.00 22 1011.4
20260506105914 85 0.0 0.0 0.00 0.00 0.00 23 1011.5
20260506104912 84 0.0 0.0 0.00 0.00 0.00 24 1011.6
20260506103914 82 0.0 0.0 0.00 0.00 0.00 26 1011.5